SAS4139 ENBR-ENZV

Flight info

Callsign SAS4139
Flight time 0h 22m
Altitude 17000
Route BEGOD
Aircraft E195/M-SDE3GILORVW/S

Departure

Time 2026-04-09 12:12
Airport Bergen Airport, Flesland (ENBR)

Arrival

Time 2026-04-09 12:34
Airport Stavanger Airport, Sola (ENZV)
Time Latitude Longitude Altitude Speed Heading
2026-04-09 12:10 60.30035 5.21642 160 ft 6 kts 261°
2026-04-09 12:10 60.29989 5.21596 160 ft 9 kts 172°
2026-04-09 12:11 60.29946 5.21609 159 ft 27 kts 171°
2026-04-09 12:11 60.29539 5.21750 147 ft 90 kts 172°
2026-04-09 12:11 60.28750 5.22017 164 ft 138 kts 170°
2026-04-09 12:11 60.27706 5.22339 560 ft 153 kts 169°
2026-04-09 12:12 60.26673 5.22550 1416 ft 152 kts 175°
2026-04-09 12:12 60.25591 5.22755 1869 ft 159 kts 168°
2026-04-09 12:12 60.24486 5.23223 2383 ft 166 kts 166°
2026-04-09 12:12 60.23335 5.23705 2921 ft 170 kts 168°
2026-04-09 12:13 60.22162 5.24129 3490 ft 172 kts 169°
2026-04-09 12:13 60.20940 5.24555 3619 ft 187 kts 169°
2026-04-09 12:13 60.19638 5.25002 3308 ft 184 kts 169°
2026-04-09 12:13 60.18417 5.25400 3531 ft 183 kts 169°
2026-04-09 12:14 60.17140 5.25858 3406 ft 189 kts 168°
2026-04-09 12:14 60.15859 5.26314 3330 ft 183 kts 169°
2026-04-09 12:14 60.14617 5.26735 3471 ft 184 kts 169°
2026-04-09 12:14 60.13249 5.27204 3522 ft 211 kts 169°
2026-04-09 12:15 60.11764 5.27697 3673 ft 219 kts 170°
2026-04-09 12:15 60.10245 5.28199 4319 ft 223 kts 171°
2026-04-09 12:15 60.08688 5.28131 5026 ft 228 kts 189°
2026-04-09 12:15 60.07150 5.27374 5647 ft 235 kts 192°
2026-04-09 12:16 60.05519 5.26565 6238 ft 242 kts 193°
2026-04-09 12:16 60.03889 5.25752 6812 ft 248 kts 194°
2026-04-09 12:16 60.02202 5.24892 7380 ft 251 kts 194°
2026-04-09 12:16 60.00502 5.24004 8048 ft 251 kts 194°
2026-04-09 12:17 59.98830 5.23172 8882 ft 246 kts 193°
2026-04-09 12:17 59.97219 5.22378 9907 ft 232 kts 194°
2026-04-09 12:17 59.95690 5.21620 10768 ft 224 kts 194°
2026-04-09 12:17 59.94178 5.20872 11385 ft 224 kts 194°
2026-04-09 12:18 59.92652 5.20117 11948 ft 228 kts 194°
2026-04-09 12:18 59.91106 5.19351 12547 ft 230 kts 194°
2026-04-09 12:18 59.89539 5.18576 13150 ft 233 kts 194°
2026-04-09 12:18 59.87957 5.17800 13800 ft 235 kts 194°
2026-04-09 12:19 59.86359 5.17003 14374 ft 239 kts 194°
2026-04-09 12:19 59.84674 5.16175 14525 ft 261 kts 194°
2026-04-09 12:19 59.82839 5.15262 14681 ft 283 kts 194°
2026-04-09 12:19 59.80858 5.14273 14903 ft 302 kts 194°
2026-04-09 12:20 59.78770 5.13521 15496 ft 308 kts 182°
2026-04-09 12:20 59.76617 5.13807 16185 ft 311 kts 177°
2026-04-09 12:20 59.74455 5.14142 16866 ft 313 kts 178°
2026-04-09 12:20 59.72255 5.14465 17096 ft 322 kts 177°
2026-04-09 12:21 59.70048 5.14833 17106 ft 315 kts 177°
2026-04-09 12:21 59.67858 5.15208 17106 ft 316 kts 177°
2026-04-09 12:21 59.65683 5.15585 17104 ft 314 kts 177°
2026-04-09 12:21 59.63542 5.16335 17107 ft 314 kts 165°
2026-04-09 12:22 59.61551 5.17935 17054 ft 303 kts 159°
2026-04-09 12:22 59.59688 5.19653 16768 ft 295 kts 159°
2026-04-09 12:22 59.57823 5.21356 16398 ft 289 kts 160°
2026-04-09 12:22 59.55990 5.22994 15919 ft 288 kts 160°
2026-04-09 12:23 59.54186 5.24576 15444 ft 287 kts 160°
2026-04-09 12:23 59.52332 5.26202 14922 ft 288 kts 160°
2026-04-09 12:23 59.50515 5.27784 14378 ft 291 kts 160°
2026-04-09 12:23 59.48617 5.29131 13751 ft 291 kts 168°
2026-04-09 12:24 59.46629 5.30043 13088 ft 294 kts 169°
2026-04-09 12:24 59.44671 5.31154 12772 ft 287 kts 165°
2026-04-09 12:24 59.42837 5.32423 12601 ft 275 kts 163°
2026-04-09 12:24 59.41061 5.33747 12214 ft 272 kts 162°
2026-04-09 12:25 59.39300 5.35095 11792 ft 271 kts 162°
2026-04-09 12:25 59.37550 5.36442 11357 ft 270 kts 162°
2026-04-09 12:25 59.35810 5.37782 10937 ft 268 kts 162°
2026-04-09 12:25 59.34079 5.39117 10556 ft 266 kts 162°
2026-04-09 12:26 59.32364 5.40440 10173 ft 264 kts 162°
2026-04-09 12:26 59.30659 5.41753 9774 ft 262 kts 162°
2026-04-09 12:26 59.28977 5.43050 9396 ft 259 kts 162°
2026-04-09 12:26 59.27309 5.44327 9016 ft 255 kts 162°
2026-04-09 12:27 59.26197 5.45179 8761 ft 253 kts 162°
2026-04-09 12:27 59.24568 5.46427 8394 ft 250 kts 162°
2026-04-09 12:27 59.22959 5.47660 8036 ft 247 kts 161°
2026-04-09 12:27 59.21370 5.48884 7692 ft 244 kts 162°
2026-04-09 12:28 59.19820 5.50067 7336 ft 241 kts 162°
2026-04-09 12:28 59.18238 5.51267 6939 ft 240 kts 162°
2026-04-09 12:28 59.16711 5.52431 6599 ft 237 kts 162°
2026-04-09 12:28 59.15182 5.53594 6246 ft 234 kts 162°
2026-04-09 12:29 59.13678 5.54734 5900 ft 230 kts 161°
2026-04-09 12:29 59.12194 5.55857 5552 ft 227 kts 161°
2026-04-09 12:29 59.10734 5.56964 5209 ft 224 kts 160°
2026-04-09 12:29 59.09296 5.58058 4907 ft 219 kts 160°
2026-04-09 12:30 59.07885 5.59119 4525 ft 217 kts 160°
2026-04-09 12:30 59.06483 5.60182 4159 ft 215 kts 159°
2026-04-09 12:30 59.05092 5.61234 3775 ft 214 kts 159°
2026-04-09 12:30 59.03710 5.62278 3336 ft 214 kts 158°
2026-04-09 12:31 59.02237 5.63132 2619 ft 228 kts 172°
2026-04-09 12:31 59.00676 5.63228 2361 ft 221 kts 175°
2026-04-09 12:31 58.99178 5.63319 2032 ft 210 kts 173°
2026-04-09 12:31 58.97798 5.63404 2020 ft 186 kts 173°
2026-04-09 12:32 58.96547 5.63496 1812 ft 181 kts 173°
2026-04-09 12:32 58.95261 5.63572 1275 ft 183 kts 174°
2026-04-09 12:32 58.94024 5.63569 1009 ft 171 kts 175°
2026-04-09 12:32 58.92907 5.63571 862 ft 151 kts 173°
2026-04-09 12:33 58.91872 5.63676 767 ft 152 kts 172°
2026-04-09 12:33 58.90852 5.63766 456 ft 141 kts 176°
2026-04-09 12:33 58.89911 5.63715 204 ft 131 kts 178°
2026-04-09 12:33 58.89032 5.63732 33 ft 118 kts 175°
2026-04-09 12:34 58.88333 5.63764 29 ft 79 kts 179°
2026-04-09 12:34 58.87904 5.63780 31 ft 54 kts 179°
2026-04-09 12:34 58.87688 5.63733 32 ft 11 kts 255°
2026-04-09 12:34 58.87711 5.63591 31 ft 12 kts 287°
2026-04-09 12:35 58.87734 5.63431 31 ft 13 kts 285°
2026-04-09 12:35 58.87779 5.63291 30 ft 13 kts 349°
2026-04-09 12:35 58.87860 5.63301 30 ft 12 kts 20°
2026-04-09 12:35 58.87940 5.63368 30 ft 13 kts 21°
2026-04-09 12:36 58.88009 5.63295 28 ft 14 kts 304°
2026-04-09 12:36 58.88090 5.63219 27 ft 15 kts 33°
2026-04-09 12:36 58.88181 5.63298 29 ft 14 kts
2026-04-09 12:36 58.88283 5.63267 28 ft 15 kts 330°
2026-04-09 12:37 58.88289 5.63169 26 ft 2 kts 255°
2026-04-09 12:37 58.88284 5.63135 23 ft 1 kts 253°
2026-04-09 12:37 58.88282 5.63124 23 ft 3 kts 253°
2026-04-09 12:37 58.88280 5.63107 24 ft 0 kts 254°
2026-04-09 12:38 58.88279 5.63102 24 ft 1 kts 254°
2026-04-09 12:38 58.88278 5.63097 24 ft 0 kts 254°